KC0VVH Weather Reports


time (UTC)temp
C
wind
direction
speed
KPH
gust
KPH
rain 1hr
cm
rain 24hr
cm
rain mn
cm
humidity
%
barometer
mb
20260831000913 17 261 8.0 33.8 0.38 0.53 0.51 76 1016.5
20260831000013 18 293 14.5 40.2 0.25 0.41 0.38 68 1016.5
20260830235413 21 301 6.4 37.0 0.18 0.33 0.33 59 1016.5
20260830234513 23 0 0.0 0.0 0.05 0.20 0.18 60 1016.5
20260830233613 24 0 0.0 0.0 0.00 0.15 0.13 47 1016.5
20260830232713 24 0 0.0 0.0 0.00 0.15 0.13 44 1016.5
20260830231813 24 196 1.6 9.7 0.00 0.15 0.13 43 1016.5
20260830230913 24 197 8.0 14.5 0.00 0.15 0.13 42 1016.5
20260830230013 25 199 4.8 12.9 0.00 0.15 0.13 43 1016.5
20260830225413 25 200 4.8 12.9 0.00 0.15 0.13 42 1016.5
20260830224513 25 194 1.6 11.3 0.00 0.15 0.13 43 1016.5
20260830223613 25 192 4.8 14.5 0.00 0.15 0.13 43 1016.5
20260830222713 25 200 1.6 11.3 0.00 0.15 0.13 42 1016.5
20260830221813 25 199 4.8 12.9 0.00 0.15 0.13 41 1016.5
20260830220913 25 77 1.6 12.9 0.00 0.15 0.13 41 1016.5
20260830220013 25 68 4.8 14.5 0.00 0.15 0.13 40 1016.5
20260830215413 25 184 1.6 11.3 0.00 0.15 0.13 42 1016.5
20260830214513 26 128 3.2 9.7 0.00 0.15 0.13 42 1016.5
20260830213613 25 55 3.2 17.7 0.00 0.15 0.13 44 1016.5
20260830212713 25 194 6.4 17.7 0.00 0.15 0.13 44 1016.5
20260830211813 25 103 3.2 19.3 0.00 0.15 0.13 43 1016.5
20260830210913 26 71 4.8 19.3 0.00 0.15 0.13 43 1016.5
20260830210013 26 56 4.8 20.9 0.00 0.15 0.13 42 1016.5
20260830205413 26 66 1.6 11.3 0.00 0.15 0.13 42 1016.5
20260830204513 25 62 6.4 19.3 0.00 0.15 0.13 41 1016.5
20260830203613 25 58 1.6 8.0 0.00 0.15 0.13 41 1016.5
20260830202713 25 57 1.6 11.3 0.00 0.15 0.13 41 1016.5
20260830201813 25 66 4.8 16.1 0.00 0.15 0.13 42 1016.5
20260830200913 25 114 3.2 14.5 0.00 0.15 0.13 44 1016.5
20260830200013 25 68 3.2 14.5 0.00 0.15 0.13 43 1016.5
20260830195413 24 70 3.2 14.5 0.00 0.15 0.13 43 1016.5
20260830194513 24 64 3.2 11.3 0.00 0.15 0.13 44 1016.5
20260830193613 23 75 4.8 14.5 0.00 0.15 0.13 45 1016.5
20260830192713 23 78 3.2 14.5 0.00 0.15 0.13 48 1016.5
20260830191813 23 75 1.6 11.3 0.00 0.15 0.13 48 1016.5
20260830190913 22 75 0.0 6.4 0.00 0.15 0.13 51 1016.5
20260830190013 22 0 0.0 3.2 0.00 0.15 0.13 53 1016.5
20260830185413 21 0 0.0 0.0 0.00 0.15 0.13 56 1016.5
20260830184513 21 0 0.0 0.0 0.00 0.15 0.13 60 1016.5
20260830183634 21 75 0.0 6.4 0.00 0.15 0.13 60 1016.5
20260830182713 20 0 0.0 0.0 0.00 0.15 0.13 63 1016.5
20260830181813 20 75 0.0 8.0 0.00 0.15 0.13 62 1016.5
20260830180934 20 42 1.6 8.0 0.00 0.15 0.13 66 1016.5
20260830180034 19 33 0.0 6.4 0.00 0.15 0.13 70 1016.5
20260830175413 18 0 0.0 1.6 0.00 0.15 0.13 71 1016.5
20260830174534 18 248 0.0 1.6 0.00 0.15 0.13 72 1016.5
20260830173634 18 3 1.6 14.5 0.00 0.15 0.13 74 1016.5
20260830172713 18 12 3.2 12.9 0.00 0.15 0.13 73 1016.5
20260830171834 19 357 1.6 11.3 0.00 0.15 0.13 71 1016.5
20260830170913 20 338 1.6 17.7 0.00 0.15 0.13 67 1016.5
20260830170013 20 351 4.8 17.7 0.00 0.15 0.13 71 1016.5
20260830165413 20 339 6.4 17.7 0.00 0.15 0.13 69 1016.5
20260830164513 20 337 3.2 16.1 0.00 0.15 0.13 69 1016.5
20260830163613 20 355 1.6 9.7 0.00 0.15 0.13 72 1016.5
20260830162713 20 336 1.6 14.5 0.00 0.15 0.13 72 1016.5
20260830161813 20 355 1.6 14.5 0.00 0.15 0.13 71 1016.5
20260830160913 20 338 1.6 8.0 0.00 0.15 0.13 72 1016.5
20260830160013 20 332 1.6 8.0 0.00 0.15 0.13 71 1016.5
20260830155413 20 332 0.0 8.0 0.00 0.15 0.13 71 1016.5
20260830154534 20 331 0.0 6.4 0.00 0.15 0.13 73 1016.5
20260830153613 19 327 1.6 8.0 0.00 0.15 0.13 74 1016.5
20260830152713 19 322 1.6 8.0 0.00 0.15 0.13 76 1016.5
20260830151813 18 303 1.6 8.0 0.00 0.15 0.13 78 1016.5
20260830150913 18 317 1.6 16.1 0.00 0.15 0.13 78 1016.5
20260830150013 18 345 1.6 12.9 0.00 0.15 0.13 79 1016.5
20260830145413 18 350 1.6 12.9 0.00 0.15 0.13 77 1016.5
20260830144513 18 329 0.0 3.2 0.00 0.15 0.13 75 1016.5
20260830143613 18 0 0.0 0.0 0.00 0.15 0.13 72 1016.5
20260830142713 18 0 0.0 0.0 0.00 0.15 0.13 74 1016.5
20260830141813 18 215 1.6 9.7 0.00 0.15 0.13 71 1016.5
20260830140934 18 211 4.8 12.9 0.00 0.15 0.13 73 1016.5
20260830140013 17 209 0.0 12.9 0.00 0.15 0.13 77 1016.5
20260830135413 17 210 0.0 9.7 0.00 0.15 0.13 78 1016.5
20260830134513 17 209 1.6 11.3 0.00 0.15 0.13 78 1016.5
20260830133613 17 211 0.0 6.4 0.00 0.15 0.13 81 1016.5
20260830132713 17 0 0.0 0.0 0.00 0.15 0.13 80 1016.5
20260830131813 17 0 0.0 0.0 0.00 0.15 0.13 80 1016.5
20260830130934 17 195 3.2 11.3 0.00 0.15 0.13 80 1016.5
20260830130034 16 207 3.2 12.9 0.00 0.15 0.13 83 1016.5
20260830125413 16 201 1.6 9.7 0.00 0.15 0.13 86 1016.5
20260830124513 16 0 0.0 0.0 0.00 0.15 0.13 87 1016.5
20260830123613 16 0 0.0 0.0 0.00 0.15 0.13 87 1016.5
20260830122734 16 0 0.0 0.0 0.00 0.15 0.13 87 1016.5
20260830121813 16 0 0.0 0.0 0.03 0.15 0.13 86 1016.5
20260830120934 16 0 0.0 0.0 0.05 0.15 0.13 85 1016.5
20260830120034 16 0 0.0 0.0 0.05 0.15 0.13 84 1016.5
20260830115413 16 0 0.0 0.0 0.05 0.15 0.13 85 1016.5
20260830114513 16 0 0.0 0.0 0.13 0.15 0.13 84 1016.5
20260830113634 17 0 0.0 0.0 0.13 0.15 0.13 84 1016.5
20260830112713 17 0 0.0 0.0 0.13 0.15 0.13 82 1016.5
20260830111813 17 0 0.0 0.0 0.10 0.13 0.10 81 1016.5
20260830110934 17 0 0.0 0.0 0.08 0.10 0.08 79 1016.5
20260830110013 18 0 0.0 0.0 0.08 0.10 0.08 76 1016.5
20260830105413 18 202 0.0 1.6 0.08 0.10 0.08 71 1016.5
20260830104513 18 0 0.0 0.0 0.00 0.03 0.00 65 1016.5
20260830103634 18 0 0.0 0.0 0.00 0.03 0.00 64 1016.5
20260830102734 18 0 0.0 0.0 0.00 0.03 0.00 65 1016.5
20260830101813 18 0 0.0 0.0 0.00 0.03 0.00 64 1016.5
20260830100913 18 0 0.0 0.0 0.00 0.03 0.00 64 1016.5
20260830100034 18 182 0.0 8.0 0.00 0.03 0.00 65 1016.5
20260830095413 17 176 0.0 8.0 0.00 0.03 0.00 66 1016.5
20260830094513 18 173 0.0 3.2 0.00 0.03 0.00 66 1016.5
20260830093613 18 0 0.0 0.0 0.00 0.03 0.00 65 1016.5
20260830092713 18 0 0.0 1.6 0.00 0.03 0.00 64 1016.5
20260830091813 18 0 0.0 1.6 0.00 0.03 0.00 63 1016.5
20260830090913 18 0 0.0 0.0 0.00 0.03 0.00 63 1016.5
20260830090013 18 0 0.0 0.0 0.00 0.03 0.00 63 1016.5
20260830085413 18 0 0.0 1.6 0.00 0.03 0.00 63 1016.5
20260830084513 18 186 0.0 1.6 0.00 0.03 0.00 65 1016.5
20260830083634 18 186 0.0 8.0 0.00 0.03 0.00 67 1016.5
20260830082713 17 184 0.0 3.2 0.00 0.03 0.00 69 1016.5
20260830081813 18 184 0.0 3.2 0.00 0.03 0.00 69 1016.5
20260830080913 18 0 0.0 0.0 0.00 0.03 0.00 68 1016.5
20260830080013 18 0 0.0 0.0 0.00 0.03 0.00 68 1016.5
20260830075413 18 0 0.0 0.0 0.00 0.03 0.00 67 1016.5
20260830074513 18 0 0.0 0.0 0.00 0.03 0.00 66 1016.5
20260830073613 18 0 0.0 1.6 0.00 0.03 0.00 66 1016.5
20260830072734 18 0 0.0 1.6 0.00 0.03 0.00 67 1016.5
20260830071813 18 0 0.0 1.6 0.00 0.03 0.00 67 1016.5
20260830070913 19 0 0.0 0.0 0.00 0.03 0.00 65 1016.5
20260830070013 19 0 0.0 0.0 0.00 0.03 0.00 64 1016.5
20260830065413 20 184 0.0 6.4 0.00 0.03 0.00 62 1016.5
20260830064513 20 0 0.0 1.6 0.00 0.03 0.00 62 1016.5
20260830063613 19 0 0.0 1.6 0.00 0.03 0.00 63 1016.5
20260830062713 19 0 0.0 0.0 0.00 0.03 0.00 63 1016.5
20260830061813 19 0 0.0 0.0 0.00 0.03 0.00 62 1016.5
20260830060913 19 0 0.0 0.0 0.00 0.03 0.00 63 1016.5
20260830060013 19 186 0.0 6.4 0.00 0.03 0.00 65 1016.5
20260830055413 18 186 0.0 6.4 0.00 0.03 0.03 66 1016.5
20260830054513 18 186 0.0 8.0 0.00 0.03 0.03 69 1016.5
20260830053634 18 185 1.6 14.5 0.00 0.03 0.03 70 1016.5
20260830052713 18 170 0.0 3.2 0.00 0.03 0.03 73 1016.5
20260830051813 19 0 0.0 0.0 0.00 0.03 0.03 72 1016.5
20260830050913 19 0 0.0 0.0 0.00 0.03 0.03 71 1016.5
20260830050013 20 0 0.0 0.0 0.00 0.03 0.03 70 1016.5
20260830045413 20 0 0.0 0.0 0.00 0.03 0.03 67 1016.5
20260830044513 20 0 0.0 0.0 0.00 0.03 0.03 67 1016.5
20260830043613 20 0 0.0 0.0 0.00 0.03 0.03 67 1016.5
20260830042734 20 78 0.0 1.6 0.00 0.03 0.03 63 1016.5
20260830041813 20 0 0.0 1.6 0.00 0.03 0.03 66 1016.5
20260830040934 20 0 0.0 1.6 0.00 0.03 0.03 66 1016.5
20260830040013 19 0 0.0 0.0 0.00 0.03 0.03 66 1016.5
20260830035413 19 0 0.0 0.0 0.00 0.03 0.03 66 1016.5
20260830034513 19 0 0.0 0.0 0.00 0.03 0.03 67 1016.5
20260830033613 19 0 0.0 0.0 0.00 0.03 0.03 69 1016.5
20260830032713 19 0 0.0 0.0 0.00 0.03 0.03 68 1016.5
20260830031834 19 0 0.0 0.0 0.03 0.03 0.03 68 1016.5
20260830030913 19 0 0.0 0.0 0.03 0.03 0.03 67 1016.5
20260830030013 20 0 0.0 0.0 0.03 0.03 0.03 69 1016.5
20260830025413 20 0 0.0 0.0 0.03 0.03 0.03 71 1016.5
20260830024513 20 0 0.0 0.0 0.03 0.03 0.03 70 1016.5
20260830023613 20 0 0.0 0.0 0.03 0.03 0.03 68 1016.5
20260830022713 21 81 1.6 12.9 0.03 0.03 0.03 62 1016.5
20260830021813 21 77 1.6 12.9 0.00 0.00 0.00 53 1016.5
20260830020913 21 78 1.6 12.9 0.00 0.00 0.00 52 1016.5
20260830020013 22 115 1.6 12.9 0.00 0.00 0.00 54 1016.5
20260830015413 22 197 1.6 17.7 0.00 0.00 0.00 54 1016.5
20260830014534 22 200 9.7 22.5 0.00 0.00 0.00 55 1016.5
20260830013613 23 147 8.0 22.5 0.00 0.00 0.00 52 1016.5
20260830012713 24 254 0.0 6.4 0.00 0.00 0.00 45 1016.5
20260830011813 24 0 0.0 0.0 0.00 0.00 0.00 42 1016.5
20260830010913 24 0 0.0 0.0 0.00 0.00 0.00 43 1016.5
20260830010013 24 252 0.0 8.0 0.00 0.00 0.00 44 1016.5
20260830005434 24 252 0.0 8.0 0.00 0.00 0.00 44 1016.5
20260830004513 24 251 0.0 4.8 0.00 0.00 0.00 44 1016.5
20260830003613 23 241 0.0 12.9 0.00 0.00 0.00 45 1016.5
20260830002734 23 245 1.6 14.5 0.00 0.00 0.00 45 1016.5
20260830001813 23 297 1.6 12.9 0.00 0.00 0.00 48 1016.5